Location: ????????
(55.1296°N, 38.2027°E)
Time: 12:53:18
(UTC+00:00)

Daily predictions for brighter satellites

Satellite Brightness Start Highest point End
(mag) Time Altitude Azimuth Time Altitude Azimuth Time Altitude Azimuth
Cosmos 1464 Rocket 4.3 13:30:39 10° SSW 13:36:47 74° WNW 13:42:57 10° N
Cosmos 2369 Rocket 2.8 13:33:48 10° SW 13:39:20 53° NW 13:44:56 10° NNE
IRS-1D 4.2 13:35:20 10° S 13:40:12 60° WSW 13:45:06 10° NNW
Cosmos 773 Rocket 4.0 13:36:06 10° NNW 13:41:20 76° ENE 13:46:35 10° SSE
Cosmos 2279 Rocket 4.4 13:37:58 10° SSE 13:43:44 42° E 13:49:33 10° NNE
CZ-2D R/B 4.3 13:42:51 10° ESE 13:44:55 16° ENE 13:47:00 10° NNE
Cosmos 1092 Rocket 4.1 13:39:17 10° NNW 13:45:29 87° W 13:51:37 10° S
Iridium 45 4.2 13:43:53 10° S 13:47:04 81° E 13:50:21 10° N
YAOGAN 1 4.3 13:47:35 10° ENE 13:49:23 12° NE 13:51:11 10° NNE
NOSS 2-2 (D) 4.0 13:47:25 10° S 13:50:14 27° SE 13:52:51 10° ENE
Cosmos 1867 3.6 13:45:13 10° NW 13:50:43 73° NE 13:56:10 10° SE
Cosmos 2278 Rocket 3.9 13:46:59 10° WNW 13:51:03 20° NNW 13:55:09 10° NNE
Cosmos 1697 Rocket 4.2 13:48:21 10° SE 13:51:55 18° E 13:55:30 10° ENE
Intercosmos 24 3.7 13:48:44 10° N 13:52:45 62° ENE 13:56:16 10° SSE
Cosmos 2151 3.4 13:48:53 10° N 13:52:47 37° ENE 13:56:41 10° SE
Cosmos 1607 4.1 13:47:00 10° NW 13:53:15 85° SW 13:59:32 10° SE
Cosmos 1743 2.7 13:52:46 10° N 13:55:54 40° ENE 13:58:59 10° SE
Cosmos 2084 3.6 13:57:15 10° WSW 14:01:25 67° NW 14:05:23 11° NE
MOS 1 Rocket 4.2 13:57:06 10° ESE 14:01:33 32° ENE 14:06:11 10° N
NOSS 3-2 (A) 3.5 13:56:47 10° SSW 14:01:48 55° SE 14:07:44 11° NE
Cosmos 1900 4.3 13:57:16 10° NW 14:02:23 82° NE 14:07:23 10° SE
NOSS 3-2 (C) 4.2 13:59:26 10° S 14:03:46 28° ESE 14:08:26 11° ENE
IGS 5A 3.3 14:00:02 10° SSE 14:03:58 65° ENE 14:07:57 10° N
SL-08 ROCKET BODY 4.4 13:59:51 10° N 14:05:48 73° ENE 14:11:49 10° SSE
ARIANE 5 R/B 2.8 14:01:39 10° SE 14:06:28 45° ENE 14:11:22 10° N
Cosmos 2034 Rocket 4.5 14:01:13 10° SSW 14:07:31 67° WNW 14:13:55 10° N
Cosmos 1356 Rocket 3.4 14:04:10 10° SSW 14:08:14 86° WNW 14:12:22 10° NNE
Cosmos 1825 Rocket 4.2 14:06:03 10° N 14:10:00 32° ENE 14:13:54 10° SE
NOSS 2-2 (E) 3.7 14:07:17 10° SSW 14:10:13 32° SE 14:12:22 14° ENE
Cosmos 1656 3.9 14:04:46 10° S 14:10:14 54° ESE 14:15:47 10° NE
Cosmos 2084 Rocket 3.8 14:07:00 10° NW 14:11:12 67° SW 14:15:23 10° SE
SAR-Lupe-4 4.1 14:08:12 10° SE 14:11:26 34° ENE 14:14:42 10° N
Cosmos 2208 Rocket 4.4 14:06:55 10° NNW 14:12:04 68° WSW 14:17:12 10° SSE
Cosmos 1758 Rocket 3.5 14:09:04 10° NNW 14:13:24 87° ENE 14:17:42 10° SSE
CZ-4C R/B 3.1 14:07:31 10° NW 14:14:05 80° SW 14:22:27 10° SE
Resurs 01 Rocket 3.6 14:14:57 11° NE 14:14:57 11° NE 14:15:24 10° NNE
Meteor 1-20 Rocket 4.1 14:09:32 10° N 14:14:59 62° ENE 14:20:23 10° SSE
Cosmos 2266 Rocket 4.0 14:09:19 10° N 14:15:26 58° ENE 14:21:24 10° SSE
Cosmos 1782 2.7 14:12:52 10° S 14:16:23 53° E 14:19:54 10° NNE
UNK 4.4 14:13:10 10° NNE 14:17:24 35° E 14:21:35 10° SSE
Cosmos 2098 Rocket 3.4 14:14:42 10° S 14:18:56 53° E 14:23:54 10° NNE
Cosmos 2082 4.4 14:15:19 10° NNW 14:20:30 34° NE 14:25:41 10° ESE
SPOT 1/Viking Rocket 4.2 14:18:27 10° ESE 14:23:05 34° ENE 14:27:44 10° N
CBERS-1 4.3 14:20:41 10° S 14:25:47 74° WSW 14:30:56 10° NNW
CZ-2D R/B 4.5 14:22:57 10° ESE 14:26:20 24° ENE 14:29:41 10° N
Cosmos 2297 Rocket 2.8 14:20:45 10° NW 14:26:21 63° WSW 14:31:56 10° SSE
Cosmos 783 Rocket 4.5 14:21:21 10° NNW 14:26:42 83° ENE 14:32:00 10° SSE
Cosmos 1076 Rocket 4.2 14:24:57 10° N 14:28:50 32° ENE 14:32:44 10° SE
SMAP 3.0 14:24:18 10° SSE 14:28:57 76° ENE 14:33:37 10° NNW
Cosmos 405 Rocket 4.0 14:26:10 10° NNW 14:29:11 35° W 14:32:09 10° SSW
IRS-P3 4.3 14:24:06 10° SE 14:29:13 50° ENE 14:34:21 10° N
NOSS 2-2 (C) 2.7 14:28:53 10° WSW 14:31:56 72° NW 14:33:48 21° NE
Landsat 7 3.7 14:29:11 10° SSE 14:33:48 67° ENE 14:38:26 10° N
Cosmos 1626 Rocket 4.4 14:31:27 10° NNW 14:35:41 52° W 14:39:51 10° S
Cosmos 1538 Rocket 4.2 14:31:30 10° NNW 14:36:38 48° NE 14:41:46 10° SE
Meteor 1-28 Rocket 2.8 14:36:37 10° NNE 14:39:57 81° E 14:43:18 10° SSW
[s.n.66845] 2.5 14:39:31 10° NNW 14:41:45 28° NE 14:41:45 28° NE
[s.n.66847] 2.5 14:39:58 10° NNW 14:42:12 28° NE 14:42:12 28° NE
[s.n.66846] 2.5 14:40:23 10° NNW 14:42:38 28° NE 14:42:38 28° NE
[s.n.66843] 2.5 14:40:55 10° NNW 14:43:09 28° NE 14:43:09 28° NE
CENTAUR R/B 2.9 14:37:40 10° WSW 14:43:46 65° NNW 14:49:50 17° NE
[s.n.66844] 2.5 14:41:21 10° NNW 14:43:35 28° NE 14:43:35 28° NE
[s.n.66842] 2.5 14:41:53 10° NNW 14:44:06 29° NE 14:44:06 29° NE
[s.n.66841] 2.5 14:42:21 10° NNW 14:44:34 29° NE 14:44:34 29° NE
[s.n.66840] 2.5 14:42:50 10° NNW 14:45:03 29° NNE 14:45:03 29° NNE
[s.n.66838] 2.5 14:43:19 10° NNW 14:45:31 29° NNE 14:45:31 29° NNE
Cosmos 2219 3.4 14:40:41 10° NNW 14:46:17 50° NE 14:51:52 10° ESE
[s.n.66839] 2.5 14:43:49 10° NNW 14:46:01 30° NNE 14:46:01 30° NNE
SL-16 R/B 2.6 14:40:20 10° NNE 14:46:37 86° WNW 14:52:50 10° SSW
[s.n.66837] 2.5 14:44:16 10° NNW 14:46:28 30° NNE 14:46:28 30° NNE
[s.n.66836] 2.5 14:44:45 10° NNW 14:46:57 30° NNE 14:46:57 30° NNE
[s.n.66835] 2.4 14:45:16 10° NNW 14:47:27 30° NNE 14:47:27 30° NNE
Thor Agena Rocket 4.0 14:42:52 10° S 14:48:02 67° WSW 14:53:10 10° NNW
Cosmos 1606 Rocket 3.9 14:44:04 10° SSE 14:48:14 43° E 14:51:39 15° NNE
[s.n.66834] 2.4 14:45:45 10° NNW 14:47:56 31° NNE 14:47:56 31° NNE
[s.n.66833] 2.4 14:46:11 10° NNW 14:48:22 31° NNE 14:48:22 31° NNE
[s.n.66832] 2.4 14:46:43 10° NNW 14:48:54 31° NNE 14:48:54 31° NNE
Cosmos 1315 Rocket 4.3 14:45:46 10° SW 14:49:15 33° WNW 14:52:46 10° N
Cosmos 1503 Rocket 4.1 14:44:23 10° S 14:49:31 57° ESE 14:53:23 17° NE
[s.n.66831] 2.4 14:47:09 10° NNW 14:49:19 31° NNE 14:49:19 31° NNE
[s.n.66830] 2.4 14:47:35 10° NNW 14:49:44 31° NNE 14:49:44 31° NNE
[s.n.66828] 2.4 14:47:59 10° NNW 14:50:09 32° NNE 14:50:09 32° NNE
[s.n.66829] 2.4 14:48:31 10° NNW 14:50:41 32° NNE 14:50:41 32° NNE
GEOS 3 Rocket 4.0 14:47:48 21° ENE 14:51:17 49° SE 14:56:29 10° SSW
USA 281 4.5 14:49:00 18° NE 14:51:21 22° NNE 14:56:05 10° NNW
[s.n.66827] 2.4 14:49:03 10° NNW 14:51:12 32° NNE 14:51:12 32° NNE
[s.n.66826] 2.4 14:49:33 10° NNW 14:51:41 32° NNE 14:51:41 32° NNE
ATLAS CENTAUR R/B 4.4 14:51:14 10° W 14:52:32 12° WSW 14:53:49 10° SW
[s.n.66825] 2.4 14:49:59 10° NNW 14:52:07 33° NNE 14:52:07 33° NNE
[s.n.66824] 2.4 14:50:31 10° NNW 14:52:38 33° NNE 14:52:38 33° NNE
[s.n.66823] 2.4 14:51:01 10° NNW 14:53:09 33° NNE 14:53:09 33° NNE
Cosmos 1844 Rocket 3.6 14:48:46 10° NNW 14:53:40 29° NNE 14:55:40 23° ENE
[s.n.66822] 2.4 14:51:30 10° NNW 14:53:38 33° NNE 14:53:38 33° NNE
[s.n.66821] 2.4 14:51:58 10° NNW 14:54:05 33° NNE 14:54:05 33° NNE
Cosmos 1980 Rocket 3.2 14:50:38 10° SSE 14:55:02 24° ESE 14:56:11 22° E
Meteor 1-25 Rocket 4.3 14:49:30 10° NNW 14:55:23 89° WSW 15:01:10 10° SSE
Meteor 1-5 Rocket 4.0 14:50:27 10° N 14:55:47 66° ENE 15:01:12 10° SSE
Cosmos 1544 Rocket 4.0 14:53:07 10° SSW 14:57:30 63° WNW 15:01:56 10° N
AQUARIUS 4.0 14:53:29 10° SSE 14:57:54 82° ENE 15:02:21 10° NNW
Cosmos 1354 Rocket 4.2 14:54:03 10° S 14:59:07 50° ESE 15:02:16 22° NE
Resurs 1-3 4.0 14:56:35 10° SE 15:00:33 38° ENE 15:04:35 10° N
Cosmos 2263 Rocket 2.1 14:55:52 10° NNW 15:01:34 78° NE 15:07:16 10° SE
IRIDIUM 104 4.5 14:56:35 10° N 15:01:50 77° W 15:07:03 10° S
Lacrosse 5 rocket 1.0 14:59:09 10° W 15:02:52 68° N 15:04:06 38° ENE
USA 238 DEB 4.5 14:59:20 10° S 15:04:26 28° ESE 15:06:19 24° E
USA 238 4.5 14:59:28 10° S 15:04:35 28° ESE 15:06:26 24° E
Cosmos 1777 Rocket 3.9 15:00:33 10° SSW 15:05:49 84° ESE 15:09:43 18° NNE
Spot 4 Rocket 4.1 15:01:02 10° SE 15:05:58 51° ENE 15:10:56 10° N
Lacrosse 4 Rocket 2.9 15:02:41 10° W 15:06:07 26° NNW 15:08:19 16° NNE
USA 215 3.3 15:06:28 24° E 15:10:42 77° N 15:17:16 10° W
Cosmos 1726 Rocket 3.7 15:07:40 10° S 15:12:12 55° E 15:14:56 23° NNE
Okean 1-7 Rocket 4.2 15:08:03 10° NNW 15:12:24 58° W 15:16:41 10° S
Cosmos 44 Rocket 3.9 15:08:39 10° NW 15:13:27 40° NNE 15:14:56 33° ENE
CZ-2D R/B 3.7 15:13:30 10° S 15:16:33 48° W 15:19:38 10° NNW
NOSS 2-3 (E) 4.2 15:13:51 10° S 15:16:49 29° SE 15:16:49 29° SE
Cosmos 2227 Rocket 2.8 15:12:14 10° NW 15:17:46 58° WSW 15:23:16 10° SSE
NOSS 2-3 (D) 4.3 15:14:37 10° S 15:17:27 27° SE 15:17:27 27° SE
Cosmos 1943 Rocket 4.0 15:14:50 10° NNW 15:18:05 16° N 15:19:30 14° NNE
Cosmos 923 Rocket 4.2 15:13:29 10° NNW 15:18:33 48° NE 15:20:52 29° ESE
SKYMED 2 3.8 15:21:36 42° E 15:22:04 44° E 15:26:14 10° S
Cosmos 1461 2.6 15:19:36 10° SW 15:23:31 81° SE 15:24:22 53° ENE
Cosmos 1933 3.2 15:20:24 10° SSW 15:24:14 82° WNW 15:26:20 26° N
YAOGAN 1 2.4 15:20:15 10° SSE 15:24:26 62° ENE 15:28:41 10° N
Cosmos 2369 Rocket 4.0 15:20:20 10° WNW 15:24:38 21° NNW 15:28:01 13° NNE
Cosmos-2242 4.3 15:21:42 10° SSE 15:23:49 25° SE 15:23:49 25° SE
Cosmos 1486 Rocket 4.4 15:20:23 10° SW 15:25:34 61° WNW 15:29:25 18° NNE
BREEZE-M DEB (TANK) 4.1 15:23:22 10° WSW 15:26:36 41° S 15:33:52 14° ESE
Cosmos 1655 Rocket 4.0 15:20:20 10° NNW 15:26:37 87° W 15:32:51 10° S
Cosmos 2360 4.4 15:22:21 10° SW 15:28:03 69° NW 15:31:46 23° NNE
Meteor 2-10 4.0 15:26:32 10° NNW 15:31:53 80° ENE 15:37:25 10° SSE
NOAA 15 4.5 15:28:14 10° SSE 15:33:32 82° ENE 15:38:51 10° NNW
Cosmos 1697 Rocket 2.6 15:29:24 10° SSW 15:35:00 79° ESE 15:37:32 34° NE
Cosmos 990 Rocket 3.8 15:31:56 10° SSW 15:37:04 80° ESE 15:39:11 37° NNE
Cosmos 2278 Rocket 4.0 15:33:48 10° NNW 15:37:22 17° N 15:38:10 16° NNE
Cosmos 1953 Rocket 3.8 15:34:03 10° NNW 15:38:30 71° W 15:42:55 10° S
Aureole 1 Rocket 3.7 15:34:31 10° S 15:39:00 46° ESE 15:39:12 46° E
NOSS 2-2 (D) 3.7 15:36:20 10° W 15:39:04 39° NW 15:39:04 39° NW
MOS 1 Rocket 4.3 15:34:29 10° S 15:39:22 53° W 15:44:31 10° NNW
Cosmos 494 Rocket 4.4 15:39:22 10° NNW 15:44:00 43° NE 15:44:00 43° NE
ARIANE 5 R/B 4.0 15:40:56 10° SSW 15:45:37 37° W 15:50:24 10° NNW
Radarsat Rocket 4.5 15:41:00 10° SSE 15:49:03 90° ENE 15:56:11 10° NNW
Resurs 01 Rocket 3.3 15:52:21 21° N 15:52:21 21° N 15:53:57 10° N
Cosmos 1680 Rocket 3.4 15:45:55 10° NNW 15:51:07 61° ENE 15:51:29 60° E
USA 81 4.1 15:46:33 10° N 15:51:52 81° W 15:57:07 10° S
NOSS 3-2 (A) 3.8 15:47:14 10° WSW 15:52:38 55° NNW 15:55:05 35° NE
NOAA 6 3.8 15:47:36 10° SSE 15:52:43 81° ENE 15:57:50 10° NNW
NOSS 3-2 (C) 3.2 15:48:31 10° SW 15:53:50 82° NW 15:55:51 45° NE
IRAS Rocket 4.2 15:51:47 10° SSE 15:57:17 82° WSW 16:02:49 10° NNW
Cosmos 1844 3.8 15:52:41 10° NNW 15:57:57 51° NE 15:57:57 51° NE
Meteor 2-2 Rocket 4.1 15:52:48 10° S 15:58:21 63° E 15:58:58 59° ENE
Gbstr 26 Del rocket 4.0 15:54:51 10° SW 15:57:35 31° S 15:57:35 31° S
CZ-2D R/B 4.2 15:56:55 10° S 16:01:01 53° W 16:05:04 10° NNW
SPOT 1/Viking Rocket 4.3 15:57:12 10° S 16:02:16 52° W 16:07:23 10° NNW
Cosmos 2082 3.9 15:59:22 10° NW 16:05:05 73° WSW 16:08:44 23° SSE
SL-19 R/B 4.4 15:59:49 10° S 16:05:15 72° WSW 16:11:02 10° NNW
PSLV R/B 3.8 16:06:53 35° SSW 16:08:21 60° WSW 16:12:24 10° NNW
COSMO-SKYMED 1 4.1 16:12:53 25° SSW 16:12:53 25° SSW 16:14:41 10° SSW
Cosmos 2227 4.1 16:08:12 10° NNW 16:13:46 72° NE 16:13:46 72° NE
Cosmos 2058 Rocket 3.5 16:09:58 10° SSW 16:13:33 56° SSW 16:13:33 56° SSW
Meteor 2-11 Rocket 4.3 16:08:35 10° NNW 16:14:49 86° E 16:20:58 10° SSE
Nadezhda 2 Rocket 4.5 16:09:41 10° NNW 16:15:50 77° W 16:21:55 10° S
Meteor 1-26 Rocket 4.0 16:17:48 10° SSW 16:23:10 88° WSW 16:23:10 88° WSW
Cosmos 1553 Rocket 3.8 16:22:04 10° S 16:28:16 88° E 16:30:07 49° NNE
GEOS 3 Rocket 4.0 16:28:51 56° N 16:29:22 59° NNW 16:34:39 10° WSW
SL-16 R/B 4.4 16:24:34 10° N 16:29:29 25° NW 16:34:22 10° W
Cosmos 2219 4.3 16:25:01 10° NW 16:30:24 43° WSW 16:35:47 10° S
USA 281 3.7 16:35:52 44° NNE 16:35:52 44° NNE 16:40:55 10° NNW
CENTAUR R/B 3.5 16:29:04 10° WNW 16:35:37 46° N 16:36:56 42° NNE
Cosmos 1844 Rocket 2.9 16:32:35 10° NNW 16:37:20 63° NNW 16:37:20 63° NNW
Cosmos 1980 Rocket 2.3 16:32:47 10° SW 16:37:58 73° WSW 16:37:58 73° WSW
Lacrosse 5 rocket 3.6 16:36:24 10° WNW 16:37:41 20° WNW 16:37:41 20° WNW
Cosmos 1745 Rocket 3.9 16:34:06 10° NNW 16:40:05 83° NNW 16:40:05 83° NNW
Cosmos 2263 Rocket 4.2 16:40:24 10° NW 16:44:58 25° WSW 16:49:31 10° SSW
Lacrosse 4 Rocket 4.1 16:43:08 10° NW 16:43:48 12° NNW 16:43:48 12° NNW
USA 215 3.2 16:53:49 82° SSW 16:53:49 82° SSW 17:00:22 10° WNW
USA 238 DEB 3.6 16:48:17 10° SW 16:53:47 72° SW 16:53:47 72° SW
USA 238 3.6 16:48:23 10° SW 16:53:53 71° SW 16:53:53 71° SW
Cosmos 44 Rocket 4.5 16:50:07 10° NW 16:53:32 42° WNW 16:53:32 42° WNW
Cosmos 1943 Rocket 4.2 16:59:18 10° NNW 17:00:59 17° N 17:00:59 17° N
Cosmos 2369 Rocket 4.4 17:07:19 10° NW 17:09:47 16° N 17:09:47 16° N
Cosmos 1697 Rocket 4.1 17:14:32 10° W 17:19:16 32° NW 17:19:16 32° NW
Cosmos 2278 Rocket 4.4 17:18:27 10° NNW 17:19:58 17° NNW 17:19:58 17° NNW
CENTAUR R/B 4.3 18:20:15 10° NW 18:24:02 33° NW 18:24:02 33° NW
